| time (UTC) | temp F | wind direction | speed MPH | gust MPH | rain 1hr in | rain 24hr in | rain mn in | humidity % | barometer mb |
| 20260504034519 | 63 | 225 | 4.0 | 16.0 | 0.00 | 0.00 | 0.00 | 40 | 991.7 |
| 20260504033535 | 63 | 228 | 4.0 | 11.0 | 0.00 | 0.00 | 0.00 | 39 | 992.2 |
| 20260504032529 | 63 | 221 | 5.0 | 13.0 | 0.00 | 0.00 | 0.00 | 40 | 992.4 |
| 20260504031525 | 63 | 248 | 4.0 | 10.0 | 0.00 | 0.00 | 0.00 | 40 | 992.6 |
| 20260504030521 | 63 | 244 | 5.0 | 14.0 | 0.00 | 0.00 | 0.00 | 40 | 993.0 |
| 20260504025516 | 63 | 223 | 4.0 | 9.0 | 0.00 | 0.00 | 0.00 | 40 | 993.4 |
| 20260504024552 | 64 | 230 | 3.0 | 8.0 | 0.00 | 0.00 | 0.00 | 40 | 993.6 |
| 20260504023527 | 64 | 216 | 4.0 | 9.0 | 0.00 | 0.00 | 0.00 | 40 | 993.9 |
| 20260504022542 | 64 | 223 | 3.0 | 8.0 | 0.00 | 0.00 | 0.00 | 40 | 994.0 |
| 20260504021517 | 64 | 227 | 4.0 | 8.0 | 0.00 | 0.00 | 0.00 | 40 | 994.2 |
| 20260504020532 | 64 | 239 | 3.0 | 10.0 | 0.00 | 0.00 | 0.00 | 40 | 994.7 |
| 20260504015527 | 64 | 254 | 3.0 | 8.0 | 0.00 | 0.00 | 0.00 | 40 | 994.9 |
| 20260504014521 | 65 | 252 | 3.0 | 7.0 | 0.00 | 0.00 | 0.00 | 40 | 995.2 |
| 20260504013536 | 65 | 232 | 3.0 | 8.0 | 0.00 | 0.00 | 0.00 | 40 | 995.5 |
| 20260504012550 | 65 | 252 | 2.0 | 4.0 | 0.00 | 0.00 | 0.00 | 39 | 995.7 |
| 20260504011605 | 65 | 246 | 3.0 | 7.0 | 0.00 | 0.00 | 0.00 | 39 | 995.9 |
| 20260504010518 | 66 | 243 | 2.0 | 4.0 | 0.00 | 0.00 | 0.00 | 38 | 996.1 |
| 20260504005534 | 66 | 250 | 3.0 | 6.0 | 0.00 | 0.00 | 0.00 | 37 | 996.5 |
| 20260504004529 | 67 | 251 | 4.0 | 9.0 | 0.00 | 0.00 | 0.00 | 36 | 996.6 |
| 20260504003544 | 67 | 251 | 4.0 | 8.0 | 0.00 | 0.00 | 0.00 | 36 | 996.8 |
| 20260504002521 | 68 | 251 | 4.0 | 10.0 | 0.00 | 0.00 | 0.00 | 35 | 997.0 |
| 20260504001536 | 68 | 248 | 4.0 | 10.0 | 0.00 | 0.00 | 0.00 | 35 | 997.2 |
| 20260504000531 | 68 | 257 | 4.0 | 9.0 | 0.00 | 0.00 | 0.00 | 35 | 997.4 |
| 20260503235525 | 69 | 269 | 5.0 | 8.0 | 0.00 | 0.00 | 0.00 | 34 | 997.6 |
| 20260503234539 | 68 | 267 | 5.0 | 15.0 | 0.00 | 0.00 | 0.00 | 34 | 997.7 |
| 20260503233536 | 68 | 267 | 5.0 | 11.0 | 0.00 | 0.00 | 0.00 | 34 | 998.0 |
| 20260503232530 | 68 | 264 | 4.0 | 13.0 | 0.00 | 0.00 | 0.00 | 35 | 998.3 |
| 20260503231525 | 68 | 268 | 4.0 | 10.0 | 0.00 | 0.00 | 0.00 | 35 | 998.6 |
| 20260503230520 | 68 | 253 | 6.0 | 11.0 | 0.00 | 0.00 | 0.00 | 34 | 998.9 |
| 20260503225515 | 69 | 289 | 5.0 | 10.0 | 0.00 | 0.00 | 0.00 | 34 | 999.1 |
| 20260503224530 | 69 | 282 | 7.0 | 19.0 | 0.00 | 0.00 | 0.00 | 33 | 999.4 |
| 20260503223525 | 69 | 274 | 6.0 | 13.0 | 0.00 | 0.00 | 0.00 | 33 | 999.4 |
| 20260503222520 | 69 | 280 | 7.0 | 14.0 | 0.00 | 0.00 | 0.00 | 33 | 999.6 |
| 20260503221555 | 68 | 281 | 6.0 | 14.0 | 0.00 | 0.00 | 0.00 | 34 | 999.9 |
| 20260503220529 | 69 | 282 | 4.0 | 10.0 | 0.00 | 0.00 | 0.00 | 35 | 1000.2 |
| 20260503215523 | 70 | 272 | 6.0 | 11.0 | 0.00 | 0.00 | 0.00 | 35 | 1000.4 |
| 20260503214518 | 68 | 306 | 6.0 | 11.0 | 0.00 | 0.00 | 0.00 | 35 | 1000.6 |
| 20260503213533 | 68 | 279 | 4.0 | 14.0 | 0.00 | 0.00 | 0.00 | 35 | 1000.9 |
| 20260503212548 | 67 | 263 | 5.0 | 13.0 | 0.00 | 0.00 | 0.00 | 36 | 1001.1 |
| 20260503211524 | 67 | 274 | 6.0 | 15.0 | 0.00 | 0.00 | 0.00 | 36 | 1001.5 |
| 20260503210519 | 68 | 289 | 6.0 | 11.0 | 0.00 | 0.00 | 0.00 | 36 | 1001.8 |
| 20260503205534 | 68 | 273 | 6.0 | 13.0 | 0.00 | 0.00 | 0.00 | 36 | 1001.9 |
| 20260503204529 | 67 | 314 | 4.0 | 10.0 | 0.00 | 0.00 | 0.00 | 37 | 1002.2 |
| 20260503203544 | 68 | 299 | 4.0 | 9.0 | 0.00 | 0.00 | 0.00 | 35 | 1002.3 |
| 20260503202518 | 66 | 267 | 4.0 | 9.0 | 0.00 | 0.00 | 0.00 | 33 | 1002.6 |
| 20260503201533 | 67 | 287 | 6.0 | 13.0 | 0.00 | 0.00 | 0.00 | 32 | 1002.8 |
| 20260503200528 | 68 | 241 | 4.0 | 8.0 | 0.00 | 0.00 | 0.00 | 33 | 1002.9 |
| 20260503195522 | 66 | 270 | 7.0 | 15.0 | 0.00 | 0.00 | 0.00 | 32 | 1003.2 |
| 20260503194538 | 65 | 285 | 5.0 | 14.0 | 0.00 | 0.00 | 0.00 | 35 | 1003.3 |
| 20260503193532 | 66 | 291 | 5.0 | 13.0 | 0.00 | 0.00 | 0.00 | 34 | 1003.6 |
| 20260503192526 | 65 | 261 | 6.0 | 16.0 | 0.00 | 0.00 | 0.00 | 36 | 1003.9 |
| 20260503191521 | 65 | 277 | 6.0 | 13.0 | 0.00 | 0.00 | 0.00 | 36 | 1004.2 |
| 20260503190517 | 64 | 285 | 5.0 | 14.0 | 0.00 | 0.00 | 0.00 | 37 | 1004.5 |
| 20260503185532 | 63 | 280 | 6.0 | 14.0 | 0.00 | 0.00 | 0.00 | 37 | 1004.7 |
| 20260503184527 | 63 | 273 | 6.0 | 11.0 | 0.00 | 0.00 | 0.00 | 37 | 1005.0 |
| 20260503183542 | 63 | 261 | 5.0 | 10.0 | 0.00 | 0.00 | 0.00 | 38 | 1005.2 |
| 20260503182516 | 62 | 290 | 6.0 | 13.0 | 0.00 | 0.00 | 0.00 | 39 | 1005.4 |
| 20260503181530 | 61 | 300 | 5.0 | 13.0 | 0.00 | 0.00 | 0.00 | 39 | 1005.6 |
| 20260503180525 | 61 | 265 | 6.0 | 16.0 | 0.00 | 0.00 | 0.00 | 39 | 1005.8 |
| 20260503175519 | 61 | 269 | 6.0 | 13.0 | 0.00 | 0.00 | 0.00 | 39 | 1006.0 |
| 20260503174534 | 61 | 299 | 5.0 | 10.0 | 0.00 | 0.00 | 0.00 | 40 | 1006.2 |
| 20260503173528 | 60 | 293 | 5.0 | 11.0 | 0.00 | 0.00 | 0.00 | 41 | 1006.3 |
| 20260503172542 | 59 | 290 | 4.0 | 10.0 | 0.00 | 0.00 | 0.00 | 40 | 1006.5 |
| 20260503171518 | 59 | 292 | 6.0 | 14.0 | 0.00 | 0.00 | 0.00 | 40 | 1006.7 |
| 20260503170553 | 59 | 277 | 5.0 | 11.0 | 0.00 | 0.00 | 0.00 | 40 | 1006.9 |
| 20260503150533 | 53 | 315 | 2.0 | 6.0 | 0.00 | 0.00 | 0.00 | 49 | 1008.0 |
| 20260503130531 | 44 | 312 | 3.0 | 7.0 | 0.00 | 0.00 | 0.00 | 66 | 1008.1 |
| 20260503110530 | 37 | 277 | 0.0 | 1.0 | 0.00 | 0.00 | 0.00 | 81 | 1007.2 |
| 20260503081522 | 44 | 341 | 4.0 | 8.0 | 0.00 | 0.00 | 0.00 | 85 | 1006.6 |
| 20260503080517 | 44 | 330 | 3.0 | 7.0 | 0.00 | 0.00 | 0.00 | 88 | 1006.4 |
| 20260503072515 | 41 | 276 | 0.0 | 1.0 | 0.00 | 0.00 | 0.00 | 94 | 1006.4 |
| 20260503071531 | 40 | 330 | 0.0 | 1.0 | 0.00 | 0.00 | 0.00 | 95 | 1006.3 |
| 20260503070545 | 40 | 262 | 0.0 | 1.0 | 0.00 | 0.00 | 0.00 | 95 | 1006.2 |
| 20260503054525 | 40 | 256 | 0.0 | 1.0 | 0.00 | 0.00 | 0.00 | 93 | 1006.3 |
| 20260503053540 | 41 | 0.0 | 0.0 | 0.00 | 0.00 | 0.00 | 92 | 1006.1 | |
| 20260503052515 | 42 | 0.0 | 0.0 | 0.00 | 0.00 | 0.00 | 91 | 1006.1 | |
| 20260503051530 | 42 | 234 | 0.0 | 1.0 | 0.00 | 0.00 | 0.00 | 91 | 1006.1 |
| 20260503050525 | 42 | 0.0 | 0.0 | 0.00 | 0.00 | 0.00 | 89 | 1006.0 | |
| 20260503045520 | 43 | 0.0 | 0.0 | 0.00 | 0.00 | 0.00 | 88 | 1006.0 | |
| 20260503044555 | 44 | 0.0 | 0.0 | 0.00 | 0.00 | 0.00 | 87 | 1006.0 | |
| 20260503043530 | 45 | 274 | 0.0 | 1.0 | 0.00 | 0.00 | 0.00 | 86 | 1006.0 |
| 20260503042523 | 45 | 0.0 | 0.0 | 0.00 | 0.00 | 0.00 | 85 | 1006.0 | |
| 20260503041519 | 45 | 0.0 | 0.0 | 0.00 | 0.00 | 0.00 | 84 | 1006.1 | |
| 20260503040535 | 47 | 284 | 0.0 | 1.0 | 0.00 | 0.00 | 0.00 | 82 | 1006.1 |
| 20260503035530 | 47 | 226 | 0.0 | 1.0 | 0.00 | 0.00 | 0.00 | 81 | 1006.0 |